This is the latest recevied weather packets stored in our database for station/object DM4XI-13. If no packets are shown the sender has not sent any weather packets the latest 10 day(s).
| Time | Temp. | Humidity | Pressure | Rain* | Wind** | Luminosity | Snow |
|---|---|---|---|---|---|---|---|
| 1777853805 | 17.22° C | 52% | 1011.6 hPa | 0 mm | 2.24 m/s, 222° | 0 W/m² | - |
| 1777853745 | 17.22° C | 52% | 1011.5 hPa | 0 mm | 2.68 m/s, 303° | 0 W/m² | - |
| 1777853683 | 16.67° C | 52% | 1011.6 hPa | 0 mm | 1.79 m/s, 305° | 0 W/m² | - |
| 1777853622 | 16.67° C | 52% | 1011.6 hPa | 0 mm | 3.13 m/s, 310° | 0 W/m² | - |
| 1777853561 | 16.67° C | 52% | 1011.8 hPa | 0 mm | 1.79 m/s, 230° | 0 W/m² | - |
| 1777853501 | 16.67° C | 53% | 1011.5 hPa | 0 mm | 2.68 m/s, 316° | 0 W/m² | - |
| 1777853439 | 16.67° C | 53% | 1011.6 hPa | 0 mm | 0.89 m/s, 313° | 0 W/m² | - |
| 1777853378 | 16.67° C | 53% | 1011.7 hPa | 0 mm | 1.79 m/s, 283° | 0 W/m² | - |
| 1777853317 | 16.67° C | 54% | 1011.5 hPa | 0 mm | 1.34 m/s, 286° | 0 W/m² | - |
| 1777853256 | 16.67° C | 54% | 1011.7 hPa | 0 mm | 1.34 m/s, 266° | 0 W/m² | - |
| 1777853195 | 16.67° C | 54% | 1011.6 hPa | 0 mm | 1.34 m/s, 301° | 0 W/m² | - |
| 1777853134 | 16.67° C | 54% | 1011.6 hPa | 0 mm | 0.45 m/s, 243° | 0 W/m² | - |
| 1777853074 | 16.67° C | 54% | 1011.8 hPa | 0 mm | 0 m/s | 0 W/m² | - |
| 1777853012 | 16.67° C | 54% | 1011.8 hPa | 0 mm | 0 m/s | 0 W/m² | - |
| 1777852952 | 16.67° C | 53% | 1011.6 hPa | 0 mm | 0.45 m/s, 250° | 0 W/m² | - |
| 1777852891 | 16.67° C | 53% | 1011.8 hPa | 0 mm | 0.45 m/s, 288° | 0 W/m² | - |
| 1777852830 | 16.67° C | 53% | 1011.7 hPa | 0 mm | 0.45 m/s, 288° | 0 W/m² | - |
| 1777852768 | 16.67° C | 53% | 1011.7 hPa | 0 mm | 0.45 m/s, 219° | 0 W/m² | - |
| 1777852707 | 16.67° C | 53% | 1011.6 hPa | 0 mm | 0.45 m/s, 236° | 0 W/m² | - |
| 1777852647 | 16.67° C | 53% | 1011.7 hPa | 0 mm | 1.34 m/s, 300° | 0 W/m² | - |
| 1777852585 | 16.67° C | 53% | 1011.6 hPa | 0 mm | 1.34 m/s, 289° | 0 W/m² | - |
| 1777852525 | 16.67° C | 53% | 1011.5 hPa | 0 mm | 0.89 m/s, 260° | 0 W/m² | - |
| 1777852464 | 16.67° C | 54% | 1011.5 hPa | 0 mm | 1.34 m/s, 302° | 0 W/m² | - |
| 1777852403 | 16.67° C | 54% | 1011.6 hPa | 0 mm | 1.34 m/s, 231° | 0 W/m² | - |
| 1777852342 | 16.67° C | 54% | 1011.5 hPa | 0 mm | 0.45 m/s, 262° | 0 W/m² | - |
* Rain latest hour (hover to see other rain measurements)
** Current wind speed in m/s (hover to see current wind gust speed)